Waarnemingen

Advertentie
Mijn weer
Twenthe, Nederland (6290): temperatuur & dauwpunt: 22.05.2018 07:00:00 - 28.05.2018 07:00:00 (CEST)Twenthe, Nederland (6290): temperatuur 5cm: 22.05.2018 07:00:00 - 28.05.2018 07:00:00 (CEST)Twenthe, Nederland (6290): windsnelheid & windstoten: 22.05.2018 07:00:00 - 28.05.2018 07:00:00 (CEST)Twenthe, Nederland (6290): windrichting: 22.05.2018 07:00:00 - 28.05.2018 07:00:00 (CEST)Twenthe, Nederland (6290): luchtdruk: 22.05.2018 07:00:00 - 28.05.2018 07:00:00 (CEST)Twenthe, Nederland (6290): zicht: 22.05.2018 07:00:00 - 28.05.2018 07:00:00 (CEST)Twenthe, Nederland (6290): neerslag: 22.05.2018 07:00:00 - 28.05.2018 07:00:00 (CEST)
Datum & Tijd tt [°C] td [°C] tt 5cm [°C] ff [km/u] ff [kn] fx [km/u] fx [kn] dd ppp [hPa] vv [km] rr [mm]
28.05.2018 07:00:00 16,0 14,9 15,6 7 4 7 4 NNW 1018,1 9 0,0
28.05.2018 06:00:00 13,3 13,3 10,4 4 2 7 4 ZO 1018,0 1,5 0,0
28.05.2018 05:00:00 13,2 13,0 9,3 4 2 11 6 O 1017,6 4,3 0,0
28.05.2018 04:00:00 13,4 13,0 9,8 4 2 7 4 ONO 1017,8 6 0,0
28.05.2018 03:00:00 14,8 13,9 13,0 4 2 4 2 N 1017,5 14 0,0
28.05.2018 02:00:00 14,4 13,5 11,5 4 2 7 4 ZO 1017,7 15 0,0
28.05.2018 01:00:00 15,0 13,0 12,3 4 2 11 6 O 1017,8 26 0,0
28.05.2018 00:00:00 16,6 12,9 15,5 11 6 14 8 ONO 1018,0 42 0,0
27.05.2018 23:00:00 16,2 13,0 14,4 11 6 14 8 NO 1018,0 46 0,0
27.05.2018 22:00:00 17,3 14,3 14,4 7 4 11 6 NO 1017,7 43 0,0
27.05.2018 21:00:00 19,6 14,9 18,6 7 4 14 8 ONO 1017,8 47 0,0
27.05.2018 20:00:00 21,9 14,6 21,8 11 6 18 10 OZO 1016,9 40 0,0
27.05.2018 19:00:00 22,2 16,8 21,8 7 4 18 10 OZO 1017,2 40 0,0
27.05.2018 18:00:00 22,0 17,2 21,5 7 4 14 8 OZO 1017,0 35 0,0
27.05.2018 17:00:00 21,6 15,4 21,4 11 6 25 14 O 1017,3 26 0,4
27.05.2018 16:00:00 26,0 14,5 26,9 11 6 18 10 ONO 1017,1 31 0,0
27.05.2018 15:00:00 26,2 12,8 27,2 7 4 22 12 O 1017,8 35 0,0
27.05.2018 14:00:00 26,2 12,9 27,9 14 8 25 14 O 1018,2 30 0,0
27.05.2018 13:00:00 26,2 13,9 28,1 18 10 32 18 ONO 1018,6 30 0,0
27.05.2018 12:00:00 24,9 14,5 26,7 14 8 29 16 ONO 1019,3 29 0,0
27.05.2018 11:00:00 23,4 14,3 25,6 14 8 25 14 ONO 1019,5 36 0,0
27.05.2018 10:00:00 21,7 13,7 23,5 14 8 25 14 NO 1019,8 26 0,0
27.05.2018 09:00:00 20,1 13,5 21,2 14 8 25 14 ONO 1019,9 28 0,0
27.05.2018 08:00:00 18,0 12,5 18,5 14 8 25 14 NO 1019,9 35 0,0
27.05.2018 07:00:00 16,5 11,9 16,3 18 10 25 14 NO 1019,9 36 0,0
27.05.2018 06:00:00 15,0 11,0 13,4 14 8 18 10 NO 1020,2 39 0,0
27.05.2018 05:00:00 15,8 10,7 14,6 11 6 22 12 NO 1020,0 48 0,0
27.05.2018 04:00:00 17,7 10,7 16,6 14 8 22 12 ONO 1020,0 48 0,0
27.05.2018 03:00:00 18,2 10,8 16,7 11 6 18 10 ONO 1020,4 50 0,0
27.05.2018 02:00:00 19,4 10,9 17,9 11 6 25 14 O 1020,7 49 0,0
27.05.2018 01:00:00 20,3 10,7 19,0 14 8 29 16 O 1021,1 47 0,0
27.05.2018 00:00:00 20,4 10,5 18,3 14 8 22 12 NO 1021,0 48 0,0
26.05.2018 23:00:00 19,8 10,5 17,5 11 6 14 8 NO 1020,9 48 0,0
26.05.2018 22:00:00 20,2 11,1 17,8 7 4 11 6 ONO 1020,7 47 0,0
26.05.2018 21:00:00 23,8 10,9 21,9 7 4 11 6 ONO 1020,3 49 0,0
26.05.2018 20:00:00 26,1 10,6 25,5 7 4 22 12 O 1020,0 49 0,0
26.05.2018 19:00:00 27,5 10,5 28,0 7 4 22 12 O 1020,0 41 0,0
26.05.2018 18:00:00 27,5 10,7 26,6 7 4 22 12 O 1020,0 43 0,0
26.05.2018 17:00:00 28,5 11,7 30,4 14 8 25 14 ONO 1020,2 30 0,0
26.05.2018 16:00:00 28,8 12,4 30,6 14 8 25 14 OZO 1020,4 30 0,0
26.05.2018 15:00:00 27,8 11,7 30,3 7 4 25 14 ONO 1020,5 32 0,0
26.05.2018 14:00:00 27,1 13,6 30,0 14 8 25 14 O 1020,8 30 0,0
26.05.2018 13:00:00 26,9 12,3 29,3 11 6 25 14 OZO 1020,9 34 0,0
26.05.2018 12:00:00 25,4 14,8 28,2 11 6 22 12 O 1021,1 27 0,0
26.05.2018 11:00:00 24,2 14,6 26,8 11 6 18 10 O 1021,1 29 0,0
26.05.2018 10:00:00 22,0 14,5 23,7 7 4 14 8 ONO 1020,8 27 0,0
26.05.2018 09:00:00 19,7 13,3 21,3 7 4 14 8 NO 1021,0 35 0,0
26.05.2018 08:00:00 17,9 12,0 18,3 4 2 11 6 ONO 1020,6 45 0,0
26.05.2018 07:00:00 16,1 11,1 15,6 4 2 11 6 ONO 1020,3 43 0,0
26.05.2018 06:00:00 15,9 10,5 14,4 7 4 14 8 O 1019,8 49 0,0
26.05.2018 05:00:00 16,6 10,5 15,2 11 6 18 10 O 1019,7 48 0,0
26.05.2018 04:00:00 16,9 11,0 15,4 11 6 18 10 ONO 1019,7 48 0,0
26.05.2018 03:00:00 17,7 12,2 16,3 11 6 18 10 ONO 1019,7 35 0,0
26.05.2018 02:00:00 17,5 13,6 15,9 11 6 18 10 ONO 1019,7 23 0,0
26.05.2018 01:00:00 17,4 14,0 16,1 11 6 14 8 ONO 1019,6 23 0,0
26.05.2018 00:00:00 15,5 14,9 14,5 7 4 11 6 ONO 1019,4 6 0,0
25.05.2018 23:00:00 16,3 15,4 15,5 7 4 7 4 ONO 1019,2 12 0,0
25.05.2018 22:00:00 17,4 16,5 17,1 7 4 7 4 NO 1019,2 6 0,0
25.05.2018 21:00:00 19,0 17,8 19,5 4 2 4 2 NO 1018,8 11 0,0
25.05.2018 20:00:00 20,4 18,4 20,8 4 2 11 6 NO 1018,4 16 0,0
25.05.2018 19:00:00 21,1 18,6 21,6 7 4 11 6 ONO 1018,2 21 0,0
25.05.2018 18:00:00 21,0 19,0 21,2 4 2 11 6 - 1018,7 13 0,2
25.05.2018 17:00:00 20,6 18,7 20,2 4 2 22 12 N 1018,8 13 4,0
25.05.2018 16:00:00 22,7 15,0 22,8 14 8 22 12 O 1018,8 26 0,0
25.05.2018 15:00:00 24,2 14,8 25,8 7 4 25 14 O 1018,6 28 0,0
25.05.2018 14:00:00 24,0 15,4 28,3 11 6 25 14 O 1018,7 28 0,0
25.05.2018 13:00:00 22,6 16,0 25,3 14 8 25 14 O 1019,1 26 0,0
25.05.2018 12:00:00 22,4 15,2 25,8 11 6 22 12 O 1019,0 24 0,0
25.05.2018 11:00:00 21,1 15,9 23,6 11 6 25 14 ZO 1019,1 20 0,0
25.05.2018 10:00:00 19,5 15,5 20,8 14 8 25 14 O 1018,9 18 0,0
25.05.2018 09:00:00 17,8 14,8 18,0 7 4 14 8 O 1018,7 18 0,0
25.05.2018 08:00:00 16,8 14,4 16,4 7 4 14 8 O 1018,6 14 0,0
25.05.2018 07:00:00 16,3 14,0 15,7 4 2 14 8 O 1018,2 16 0,0
25.05.2018 06:00:00 15,7 13,8 14,1 11 6 14 8 ONO 1017,9 14 0,0
25.05.2018 05:00:00 16,1 13,8 15,2 7 4 18 10 O 1017,9 18 0,0
25.05.2018 04:00:00 16,7 13,6 15,1 11 6 14 8 ONO 1017,9 23 0,0
25.05.2018 03:00:00 16,7 13,9 15,6 7 4 14 8 O 1018,4 23 0,0
25.05.2018 02:00:00 16,9 14,3 15,8 7 4 14 8 O 1018,5 17 0,0
25.05.2018 01:00:00 16,9 14,5 15,9 11 6 22 12 O 1018,7 17 0,1
25.05.2018 00:00:00 18,2 14,0 17,6 14 8 32 18 O 1018,7 27 0,0
24.05.2018 23:00:00 18,4 13,6 17,6 14 8 29 16 O 1018,8 30 0,0
24.05.2018 22:00:00 19,0 13,7 18,1 18 10 29 16 O 1018,8 31 0,0
24.05.2018 21:00:00 19,2 13,7 18,4 7 4 18 10 ONO 1018,4 35 0,0
24.05.2018 20:00:00 19,7 13,6 19,7 11 6 22 12 O 1018,2 31 0,0
24.05.2018 19:00:00 19,9 13,5 19,8 14 8 32 18 O 1018,3 36 0,0
24.05.2018 18:00:00 19,6 13,7 19,7 22 12 43 23 O 1018,6 31 0,0
24.05.2018 17:00:00 20,1 13,3 20,9 22 12 40 21 O 1019,0 30 0,0
24.05.2018 16:00:00 21,9 12,7 23,7 25 14 43 23 O 1019,3 33 0,0
24.05.2018 15:00:00 21,8 12,0 22,9 18 10 40 21 O 1019,6 33 0,0
24.05.2018 14:00:00 21,5 11,0 22,4 18 10 47 25 O 1019,8 38 0,0
24.05.2018 13:00:00 23,1 11,4 24,6 22 12 36 19 O 1019,7 31 0,0
24.05.2018 12:00:00 21,6 12,0 22,5 18 10 36 19 ONO 1020,3 33 0,0
24.05.2018 11:00:00 21,1 11,7 23,8 14 8 25 14 ONO 1020,5 34 0,0
24.05.2018 10:00:00 18,6 10,5 19,8 14 8 25 14 ONO 1020,9 43 0,0
24.05.2018 09:00:00 17,3 9,5 17,7 14 8 22 12 NO 1021,0 42 0,0
24.05.2018 08:00:00 15,8 9,0 15,7 18 10 25 14 NO 1021,0 38 0,0
24.05.2018 07:00:00 14,5 8,2 13,4 11 6 18 10 ONO 1021,1 16 0,0
24.05.2018 06:00:00 14,1 7,5 12,0 11 6 22 12 ONO 1021,1 10 0,0
24.05.2018 05:00:00 14,0 7,5 11,7 14 8 18 10 NO 1021,2 31 0,0
24.05.2018 04:00:00 14,2 7,9 12,1 11 6 22 12 NO 1021,6 32 0,0
24.05.2018 03:00:00 15,4 8,5 12,7 14 8 18 10 ONO 1021,7 16 0,0
24.05.2018 02:00:00 15,5 8,6 13,0 14 8 18 10 ONO 1022,0 33 0,0
24.05.2018 01:00:00 16,4 7,8 13,9 14 8 22 12 ONO 1022,0 19 0,0
24.05.2018 00:00:00 16,8 6,4 13,1 14 8 22 12 NO 1021,9 24 0,0
23.05.2018 23:00:00 16,5 6,2 8,9 11 6 14 8 NO 1021,5 24 0,0
23.05.2018 22:00:00 17,6 6,8 13,3 11 6 18 10 NO 1021,5 16 0,0
23.05.2018 21:00:00 20,5 7,4 19,0 14 8 29 16 NO 1020,9 16 0,0
23.05.2018 20:00:00 22,9 7,8 22,4 18 10 32 18 ONO 1020,8 10 0,0
23.05.2018 19:00:00 23,5 8,8 24,5 22 12 32 18 ONO 1020,5 32 0,0
23.05.2018 18:00:00 23,8 8,0 23,6 14 8 36 19 ONO 1020,6 40 0,0
23.05.2018 17:00:00 24,3 8,3 26,4 14 8 36 19 O 1020,5 9 0,0
23.05.2018 16:00:00 24,4 7,7 26,5 18 10 40 21 ONO 1020,7 42 0,0
23.05.2018 15:00:00 25,6 11,1 27,8 25 14 40 21 ONO 1020,8 30 0,0
23.05.2018 14:00:00 24,8 10,5 27,9 14 8 32 18 O 1020,8 27 0,0
23.05.2018 13:00:00 23,4 10,9 26,8 18 10 29 16 ONO 1020,8 27 0,0
23.05.2018 12:00:00 21,5 13,2 23,1 11 6 18 10 ONO 1020,4 31 0,0
23.05.2018 11:00:00 19,0 12,0 20,2 11 6 18 10 NO 1020,2 32 0,0
23.05.2018 10:00:00 17,6 12,1 18,0 11 6 18 10 ONO 1019,9 34 0,0
23.05.2018 09:00:00 16,7 11,2 17,2 14 8 22 12 NO 1019,2 35 0,0
23.05.2018 08:00:00 16,3 11,9 15,7 11 6 18 10 NNO 1018,7 29 0,0
23.05.2018 07:00:00 15,5 12,0 14,6 4 2 25 14 N 1018,1 31 0,0
23.05.2018 06:00:00 15,6 11,6 14,5 14 8 22 12 NO 1017,5 35 0,0
23.05.2018 05:00:00 15,3 12,6 14,5 14 8 22 12 NNO 1017,0 29 0,0
23.05.2018 04:00:00 15,7 12,6 14,9 14 8 22 12 NO 1016,9 37 0,0
23.05.2018 03:00:00 14,7 12,6 12,7 7 4 11 6 NO 1016,6 31 0,0
23.05.2018 02:00:00 14,9 13,4 14,0 4 2 11 6 NNO 1016,7 24 0,0
23.05.2018 01:00:00 15,1 13,4 14,5 4 2 11 6 NO 1016,7 33 0,0
23.05.2018 00:00:00 16,1 12,5 14,8 7 4 18 10 NO 1016,2 47 0,0
22.05.2018 23:00:00 16,6 13,0 15,8 11 6 29 16 NO 1015,9 45 0,0
22.05.2018 22:00:00 18,0 12,6 17,3 18 10 29 16 ONO 1015,2 49 0,0
22.05.2018 21:00:00 19,5 12,9 17,9 7 4 18 10 O 1014,2 48 0,0
22.05.2018 20:00:00 20,3 12,1 19,6 11 6 14 8 ONO 1013,6 40 0,0
22.05.2018 19:00:00 21,5 12,2 21,7 7 4 14 8 NO 1013,5 45 0,0
22.05.2018 18:00:00 22,7 12,4 22,6 7 4 18 10 ZZO 1012,8 40 0,0
22.05.2018 17:00:00 23,8 12,3 25,3 7 4 14 8 ONO 1012,7 28 0,0
22.05.2018 16:00:00 24,4 11,2 26,6 7 4 22 12 OZO 1013,0 32 0,0
22.05.2018 15:00:00 25,3 11,3 28,5 7 4 29 16 NO 1012,9 33 0,0
22.05.2018 14:00:00 24,1 11,4 27,9 7 4 22 12 O 1012,9 27 0,0
22.05.2018 13:00:00 22,6 9,6 26,2 11 6 22 12 ONO 1013,1 32 0,0
22.05.2018 12:00:00 21,8 10,3 26,0 11 6 25 14 O 1013,0 26 0,0
22.05.2018 11:00:00 21,2 9,6 24,8 11 6 18 10 O 1013,0 34 0,0
22.05.2018 10:00:00 20,0 9,7 23,2 7 4 14 8 NO 1013,2 33 0,0
22.05.2018 09:00:00 17,6 9,1 19,4 7 4 14 8 NO 1013,1 33 0,0
22.05.2018 08:00:00 14,9 8,5 13,3 7 4 14 8 NO 1012,9 37 0,0
22.05.2018 07:00:00 13,9 8,4 12,7 7 4 22 12 NO 1012,6 49 0,0

tt = temperatuur
td = dauwpunt
tt 5cm = temperatuur 5cm
ff = windsnelheid
fx = windstoten
dd = windrichting
ppp = luchtdruk
vv = zicht
rr = neerslag

Weerstations in de omgeving